Time,TemperatureF,DewpointF,PressureIn,WindDirection,WindDirectionDegrees,WindSpeedMPH,WindSpeedGustMPH,Humidity,HourlyPrecipIn,Conditions,Clouds,dailyrainin,SoftwareType,DateUTC
2013-01-27 00:03:00,22.0,18.0,30.42,ENE,74,1.0,1.0,85,0.00,,,0.00,,2013-01-27 05:03:00,
2013-01-27 00:12:00,22.0,18.0,30.42,ENE,74,1.0,1.0,85,0.00,,,0.00,,2013-01-27 05:12:00,
2013-01-27 00:22:00,22.0,18.0,30.42,East,93,2.0,3.0,86,0.00,,,0.00,,2013-01-27 05:22:00,
2013-01-27 00:32:00,22.0,18.0,30.42,East,94,2.0,5.0,85,0.00,,,0.00,,2013-01-27 05:32:00,
2013-01-27 00:41:00,22.0,18.0,30.42,East,94,2.0,5.0,85,0.00,,,0.00,,2013-01-27 05:41:00,
2013-01-27 00:52:00,23.0,19.0,30.41,East,90,3.0,5.0,84,0.00,,,0.00,,2013-01-27 05:52:00,
2013-01-27 01:01:00,23.0,19.0,30.41,East,92,3.0,6.0,84,0.00,,,0.00,,2013-01-27 06:01:00,
2013-01-27 01:11:00,23.0,19.0,30.41,East,92,3.0,6.0,84,0.00,,,0.00,,2013-01-27 06:11:00,
2013-01-27 01:21:00,23.0,19.0,30.41,East,98,3.0,5.0,84,0.00,,,0.00,,2013-01-27 06:21:00,
2013-01-27 01:32:00,23.0,19.0,30.41,ESE,107,3.0,6.0,84,0.00,,,0.00,,2013-01-27 06:32:00,
2013-01-27 01:42:00,23.0,19.0,30.41,ESE,107,3.0,6.0,84,0.00,,,0.00,,2013-01-27 06:42:00,
2013-01-27 01:52:00,23.0,19.0,30.42,East,90,0.0,0.0,84,0.00,,,0.00,,2013-01-27 06:52:00,
2013-01-27 02:01:00,22.0,18.0,30.42,East,90,0.0,0.0,85,0.00,,,0.00,,2013-01-27 07:01:00,
2013-01-27 02:14:00,22.0,18.0,30.42,East,90,0.0,0.0,85,0.00,,,0.00,,2013-01-27 07:14:00,
2013-01-27 02:21:00,22.0,18.0,30.42,East,90,0.0,0.0,85,0.00,,,0.00,,2013-01-27 07:21:00,
2013-01-27 02:31:00,22.0,18.0,30.42,East,90,0.0,0.0,85,0.00,,,0.00,,2013-01-27 07:31:00,
2013-01-27 02:41:00,22.0,18.0,30.42,East,90,0.0,0.0,85,0.00,,,0.00,,2013-01-27 07:41:00,
2013-01-27 02:52:00,22.0,18.0,30.41,ENE,78,0.0,0.0,85,0.00,,,0.00,,2013-01-27 07:52:00,
2013-01-27 03:01:00,22.0,18.0,30.41,ESE,110,0.0,0.0,85,0.00,,,0.00,,2013-01-27 08:01:00,
2013-01-27 03:11:00,22.0,18.0,30.41,ESE,110,0.0,0.0,85,0.00,,,0.00,,2013-01-27 08:11:00,
2013-01-27 03:22:00,22.0,18.0,30.42,East,96,0.0,0.0,85,0.00,,,0.00,,2013-01-27 08:22:00,
2013-01-27 03:32:00,22.0,18.0,30.42,East,96,0.0,0.0,85,0.00,,,0.00,,2013-01-27 08:32:00,
2013-01-27 03:42:00,22.0,18.0,30.42,East,96,0.0,0.0,85,0.00,,,0.00,,2013-01-27 08:42:00,
2013-01-27 03:52:00,22.0,18.0,30.42,East,96,0.0,0.0,86,0.00,,,0.00,,2013-01-27 08:52:00,
2013-01-27 04:02:00,23.0,19.0,30.42,ENE,72,0.0,0.0,85,0.00,,,0.00,,2013-01-27 09:02:00,
2013-01-27 04:11:00,23.0,19.0,30.42,ENE,72,0.0,0.0,85,0.00,,,0.00,,2013-01-27 09:11:00,
2013-01-27 04:21:00,22.0,18.0,30.41,East,96,1.0,3.0,86,0.00,,,0.00,,2013-01-27 09:21:00,
2013-01-27 04:32:00,23.0,19.0,30.41,East,93,0.0,0.0,86,0.00,,,0.00,,2013-01-27 09:32:00,
2013-01-27 04:41:00,23.0,19.0,30.41,East,93,0.0,0.0,86,0.00,,,0.00,,2013-01-27 09:41:00,
2013-01-27 04:52:00,22.0,19.0,30.40,East,93,0.0,0.0,87,0.00,,,0.00,,2013-01-27 09:52:00,
2013-01-27 05:01:00,22.0,19.0,30.40,East,93,0.0,0.0,87,0.00,,,0.00,,2013-01-27 10:01:00,
2013-01-27 05:11:00,22.0,19.0,30.39,East,84,2.0,3.0,88,0.00,,,0.00,,2013-01-27 10:11:00,
2013-01-27 05:21:00,22.0,19.0,30.39,East,84,2.0,3.0,88,0.00,,,0.00,,2013-01-27 10:21:00,
2013-01-27 05:32:00,21.0,18.0,30.39,East,84,2.0,3.0,89,0.00,,,0.00,,2013-01-27 10:32:00,
2013-01-27 05:42:00,21.0,18.0,30.39,East,84,2.0,3.0,89,0.00,,,0.00,,2013-01-27 10:42:00,
2013-01-27 05:52:00,22.0,19.0,30.39,ESE,109,1.0,3.0,89,0.00,,,0.00,,2013-01-27 10:52:00,
2013-01-27 06:01:00,22.0,19.0,30.40,ENE,64,0.0,0.0,89,0.00,,,0.00,,2013-01-27 11:01:00,
2013-01-27 06:11:00,22.0,19.0,30.40,ENE,61,0.0,3.0,88,0.00,,,0.00,,2013-01-27 11:11:00,
2013-01-27 06:21:00,22.0,19.0,30.40,ENE,61,0.0,3.0,88,0.00,,,0.00,,2013-01-27 11:21:00,
2013-01-27 06:32:00,23.0,20.0,30.40,East,88,0.0,0.0,88,0.00,,,0.00,,2013-01-27 11:32:00,
2013-01-27 06:42:00,23.0,20.0,30.40,East,88,0.0,0.0,88,0.00,,,0.00,,2013-01-27 11:42:00,
2013-01-27 06:52:00,22.0,19.0,30.40,ENE,72,1.0,0.0,88,0.00,,,0.00,,2013-01-27 11:52:00,
2013-01-27 07:02:00,22.0,19.0,30.40,East,86,3.0,6.0,89,0.00,,,0.00,,2013-01-27 12:02:00,
2013-01-27 07:12:00,22.0,19.0,30.40,East,86,3.0,6.0,89,0.00,,,0.00,,2013-01-27 12:12:00,
2013-01-27 07:22:00,23.0,20.0,30.41,East,100,3.0,6.0,88,0.00,,,0.00,,2013-01-27 12:22:00,
2013-01-27 07:32:00,23.0,20.0,30.41,ESE,112,5.0,7.0,87,0.00,,,0.00,,2013-01-27 12:32:00,
2013-01-27 07:42:00,23.0,20.0,30.41,ESE,112,5.0,7.0,87,0.00,,,0.00,,2013-01-27 12:42:00,
2013-01-27 07:52:00,23.0,20.0,30.41,ESE,119,3.0,6.0,87,0.00,,,0.00,,2013-01-27 12:52:00,
2013-01-27 08:02:00,24.0,21.0,30.41,ESE,114,6.0,6.0,87,0.00,,,0.00,,2013-01-27 13:02:00,
2013-01-27 08:11:00,24.0,21.0,30.41,ESE,114,6.0,6.0,87,0.00,,,0.00,,2013-01-27 13:11:00,
2013-01-27 08:22:00,24.0,21.0,30.40,East,94,6.0,8.0,87,0.00,,,0.00,,2013-01-27 13:22:00,
2013-01-27 08:32:00,24.0,21.0,30.41,ESE,116,6.0,7.0,87,0.00,,,0.00,,2013-01-27 13:32:00,
2013-01-27 08:42:00,24.0,21.0,30.40,ESE,111,6.0,8.0,87,0.00,,,0.00,,2013-01-27 13:42:00,
2013-01-27 08:52:00,24.0,21.0,30.40,ESE,111,6.0,8.0,87,0.00,,,0.00,,2013-01-27 13:52:00,
2013-01-27 09:02:00,24.0,21.0,30.40,ESE,112,6.0,9.0,87,0.00,,,0.00,,2013-01-27 14:02:00,
2013-01-27 09:12:00,24.0,21.0,30.40,ESE,112,6.0,9.0,87,0.00,,,0.00,,2013-01-27 14:12:00,
2013-01-27 09:22:00,25.0,22.0,30.39,ESE,121,6.0,8.0,87,0.00,,,0.00,,2013-01-27 14:22:00,
2013-01-27 09:32:00,25.0,22.0,30.39,ESE,121,6.0,8.0,87,0.00,,,0.00,,2013-01-27 14:32:00,
2013-01-27 09:42:00,25.0,22.0,30.39,ESE,121,6.0,8.0,87,0.00,,,0.00,,2013-01-27 14:42:00,
2013-01-27 09:53:00,26.0,23.0,30.40,ESE,109,5.0,7.0,87,0.00,,,0.00,,2013-01-27 14:53:00,
2013-01-27 10:02:00,26.0,23.0,30.40,ESE,108,5.0,8.0,87,0.00,,,0.00,,2013-01-27 15:02:00,
2013-01-27 10:12:00,26.0,23.0,30.40,ESE,108,5.0,8.0,87,0.00,,,0.00,,2013-01-27 15:12:00,
2013-01-27 10:22:00,26.0,22.0,30.40,ESE,117,6.0,7.0,86,0.00,,,0.00,,2013-01-27 15:22:00,
2013-01-27 10:32:00,27.0,23.0,30.40,ESE,102,3.0,5.0,86,0.00,,,0.00,,2013-01-27 15:32:00,
2013-01-27 10:42:00,27.0,23.0,30.40,ESE,102,3.0,5.0,86,0.00,,,0.00,,2013-01-27 15:42:00,
2013-01-27 10:53:00,27.0,23.0,30.39,ESE,110,6.0,8.0,86,0.00,,,0.00,,2013-01-27 15:53:00,
2013-01-27 11:02:00,28.0,24.0,30.40,East,98,5.0,8.0,85,0.00,,,0.00,,2013-01-27 16:02:00,
2013-01-27 11:12:00,28.0,24.0,30.40,East,98,5.0,8.0,85,0.00,,,0.00,,2013-01-27 16:12:00,
2013-01-27 11:22:00,28.0,23.0,30.40,SE,141,8.0,10.0,82,0.00,,,0.00,,2013-01-27 16:22:00,
2013-01-27 11:32:00,29.0,24.0,30.40,ESE,117,5.0,6.0,82,0.00,,,0.00,,2013-01-27 16:32:00,
2013-01-27 11:42:00,29.0,24.0,30.40,ESE,117,5.0,6.0,82,0.00,,,0.00,,2013-01-27 16:42:00,
2013-01-27 11:53:00,30.0,25.0,30.40,SE,138,5.0,8.0,81,0.00,,,0.00,,2013-01-27 16:53:00,
2013-01-27 12:02:00,31.0,25.0,30.39,SE,135,5.0,7.0,79,0.00,,,0.00,,2013-01-27 17:02:00,
2013-01-27 12:12:00,31.0,25.0,30.39,SE,135,5.0,7.0,79,0.00,,,0.00,,2013-01-27 17:12:00,
2013-01-27 12:22:00,32.0,25.0,30.39,SE,130,3.0,6.0,76,0.00,,,0.00,,2013-01-27 17:22:00,
2013-01-27 12:32:00,32.0,25.0,30.38,SSE,147,6.0,9.0,75,0.00,,,0.00,,2013-01-27 17:32:00,
2013-01-27 12:42:00,32.0,25.0,30.38,SSE,147,6.0,9.0,75,0.00,,,0.00,,2013-01-27 17:42:00,
2013-01-27 12:53:00,33.0,26.0,30.37,SSE,153,3.0,8.0,75,0.00,,,0.00,,2013-01-27 17:53:00,
2013-01-27 13:02:00,33.0,25.0,30.36,SSE,150,5.0,6.0,73,0.00,,,0.00,,2013-01-27 18:02:00,
2013-01-27 13:12:00,33.0,25.0,30.36,SSE,150,5.0,6.0,73,0.00,,,0.00,,2013-01-27 18:12:00,
2013-01-27 13:22:00,33.0,25.0,30.36,SSE,150,5.0,6.0,73,0.00,,,0.00,,2013-01-27 18:22:00,
2013-01-27 13:32:00,34.0,26.0,30.34,SSE,158,6.0,8.0,73,0.00,,,0.00,,2013-01-27 18:32:00,
2013-01-27 13:42:00,34.0,26.0,30.34,SSE,158,6.0,8.0,73,0.00,,,0.00,,2013-01-27 18:42:00,
2013-01-27 13:53:00,34.0,25.0,30.33,ESE,112,7.0,8.0,70,0.00,,,0.00,,2013-01-27 18:53:00,
2013-01-27 14:02:00,35.0,26.0,30.32,ESE,117,5.0,7.0,70,0.00,,,0.00,,2013-01-27 19:02:00,
2013-01-27 14:12:00,35.0,26.0,30.32,ESE,117,5.0,7.0,70,0.00,,,0.00,,2013-01-27 19:12:00,
2013-01-27 14:22:00,36.0,26.0,30.31,SE,133,6.0,8.0,66,0.00,,,0.00,,2013-01-27 19:22:00,
2013-01-27 14:32:00,36.0,26.0,30.30,ESE,120,6.0,9.0,66,0.00,,,0.00,,2013-01-27 19:32:00,
2013-01-27 14:42:00,36.0,26.0,30.30,ESE,120,6.0,9.0,66,0.00,,,0.00,,2013-01-27 19:42:00,
2013-01-27 14:52:00,37.0,26.0,30.29,SE,139,5.0,7.0,63,0.00,,,0.00,,2013-01-27 19:52:00,
2013-01-27 15:02:00,37.0,24.0,30.28,SE,133,5.0,7.0,60,0.00,,,0.00,,2013-01-27 20:02:00,
2013-01-27 15:12:00,37.0,24.0,30.28,SE,133,5.0,7.0,60,0.00,,,0.00,,2013-01-27 20:12:00,
2013-01-27 15:22:00,38.0,25.0,30.27,SE,131,5.0,6.0,59,0.00,,,0.00,,2013-01-27 20:22:00,
2013-01-27 15:33:00,38.0,25.0,30.27,SSE,166,2.0,7.0,59,0.00,,,0.00,,2013-01-27 20:33:00,
2013-01-27 15:42:00,38.0,25.0,30.27,SSE,166,2.0,7.0,59,0.00,,,0.00,,2013-01-27 20:42:00,
2013-01-27 15:52:00,38.0,25.0,30.27,South,171,5.0,9.0,58,0.00,,,0.00,,2013-01-27 20:52:00,
2013-01-27 16:02:00,38.0,25.0,30.25,ESE,122,6.0,9.0,58,0.00,,,0.00,,2013-01-27 21:02:00,
2013-01-27 16:12:00,38.0,25.0,30.25,ESE,122,6.0,9.0,58,0.00,,,0.00,,2013-01-27 21:12:00,
2013-01-27 16:22:00,38.0,25.0,30.24,ESE,123,8.0,10.0,58,0.00,,,0.00,,2013-01-27 21:22:00,
2013-01-27 16:33:00,38.0,25.0,30.24,SE,145,7.0,10.0,60,0.00,,,0.00,,2013-01-27 21:33:00,
2013-01-27 16:42:00,38.0,25.0,30.24,SE,145,7.0,10.0,60,0.00,,,0.00,,2013-01-27 21:42:00,
2013-01-27 16:52:00,38.0,26.0,30.24,South,171,6.0,8.0,61,0.00,,,0.00,,2013-01-27 21:52:00,
2013-01-27 17:02:00,38.0,26.0,30.24,SSE,150,5.0,7.0,62,0.00,,,0.00,,2013-01-27 22:02:00,
2013-01-27 17:12:00,38.0,26.0,30.24,SSE,150,5.0,7.0,62,0.00,,,0.00,,2013-01-27 22:12:00,
2013-01-27 17:22:00,37.0,26.0,30.24,SE,141,8.0,12.0,63,0.00,,,0.00,,2013-01-27 22:22:00,
2013-01-27 17:32:00,38.0,27.0,30.23,SE,146,3.0,5.0,65,0.00,,,0.00,,2013-01-27 22:32:00,
2013-01-27 17:42:00,38.0,27.0,30.23,SE,146,3.0,5.0,65,0.00,,,0.00,,2013-01-27 22:42:00,
2013-01-27 17:52:00,37.0,28.0,30.22,SE,128,5.0,8.0,69,0.00,,,0.00,,2013-01-27 22:52:00,
2013-01-27 18:02:00,37.0,29.0,30.22,SSE,150,5.0,7.0,73,0.00,,,0.00,,2013-01-27 23:02:00,
2013-01-27 18:12:00,37.0,29.0,30.22,SSE,150,5.0,7.0,73,0.00,,,0.00,,2013-01-27 23:12:00,
2013-01-27 18:22:00,36.0,29.0,30.22,SSE,148,5.0,7.0,77,0.00,,,0.00,,2013-01-27 23:22:00,
2013-01-27 18:32:00,36.0,30.0,30.22,SSE,161,5.0,7.0,80,0.10,,,0.10,,2013-01-27 23:32:00,
2013-01-27 18:42:00,36.0,30.0,30.22,SSE,161,5.0,7.0,80,0.10,,,0.10,,2013-01-27 23:42:00,
2013-01-27 18:53:00,36.0,31.0,30.21,SSE,159,6.0,10.0,82,0.10,,,0.10,,2013-01-27 23:53:00,
2013-01-27 19:02:00,36.0,32.0,30.20,SSE,151,6.0,7.0,84,0.10,,,0.10,,2013-01-28 00:02:00,
2013-01-27 19:11:00,36.0,32.0,30.20,SSE,151,6.0,7.0,84,0.10,,,0.10,,2013-01-28 00:11:00,
2013-01-27 19:21:00,35.0,32.0,30.20,SE,140,8.0,10.0,87,0.10,,,0.10,,2013-01-28 00:21:00,
2013-01-27 19:32:00,35.0,32.0,30.20,SE,140,8.0,10.0,87,0.10,,,0.10,,2013-01-28 00:32:00,
2013-01-27 19:42:00,35.0,32.0,30.20,SE,140,8.0,10.0,87,0.10,,,0.10,,2013-01-28 00:42:00,
2013-01-27 19:51:00,35.0,33.0,30.21,SE,144,6.0,9.0,91,0.00,,,0.10,,2013-01-28 00:51:00,
2013-01-27 20:02:00,36.0,34.0,30.21,SSE,165,3.0,5.0,94,0.00,,,0.10,,2013-01-28 01:02:00,
2013-01-27 20:12:00,36.0,34.0,30.21,SSE,165,3.0,5.0,94,0.00,,,0.10,,2013-01-28 01:12:00,
2013-01-27 20:22:00,36.0,35.0,30.21,South,177,2.0,5.0,95,0.00,,,0.10,,2013-01-28 01:22:00,
2013-01-27 20:33:00,35.0,34.0,30.20,SSE,147,3.0,5.0,96,0.00,,,0.10,,2013-01-28 01:33:00,
2013-01-27 20:42:00,35.0,34.0,30.20,SSE,147,3.0,5.0,96,0.00,,,0.10,,2013-01-28 01:42:00,
2013-01-27 20:52:00,36.0,35.0,30.19,SSE,163,3.0,7.0,96,0.00,,,0.10,,2013-01-28 01:52:00,
2013-01-27 21:02:00,36.0,35.0,30.19,SE,144,5.0,8.0,97,0.00,,,0.10,,2013-01-28 02:02:00,
2013-01-27 21:11:00,36.0,35.0,30.19,SE,144,5.0,8.0,97,0.00,,,0.10,,2013-01-28 02:11:00,
2013-01-27 21:22:00,36.0,35.0,30.19,SSE,168,3.0,5.0,97,0.00,,,0.10,,2013-01-28 02:22:00,
2013-01-27 21:32:00,36.0,35.0,30.18,SE,142,6.0,7.0,97,0.00,,,0.10,,2013-01-28 02:32:00,
2013-01-27 21:42:00,36.0,35.0,30.18,SE,142,6.0,7.0,97,0.00,,,0.10,,2013-01-28 02:42:00,
2013-01-27 21:52:00,36.0,35.0,30.18,SSE,156,7.0,8.0,98,0.00,,,0.10,,2013-01-28 02:52:00,
2013-01-27 22:02:00,37.0,36.0,30.17,SSE,149,6.0,9.0,98,0.00,,,0.10,,2013-01-28 03:02:00,
2013-01-27 22:12:00,37.0,36.0,30.17,SSE,149,6.0,9.0,98,0.00,,,0.10,,2013-01-28 03:12:00,
2013-01-27 22:22:00,37.0,37.0,30.16,SSE,157,6.0,8.0,99,0.10,,,0.20,,2013-01-28 03:22:00,
2013-01-27 22:32:00,37.0,37.0,30.15,SSE,153,6.0,9.0,99,0.10,,,0.20,,2013-01-28 03:32:00,
2013-01-27 22:42:00,37.0,37.0,30.15,SSE,153,6.0,9.0,99,0.10,,,0.20,,2013-01-28 03:42:00,
2013-01-27 22:53:00,37.0,37.0,30.14,SSE,150,8.0,9.0,99,0.10,,,0.20,,2013-01-28 03:53:00,
2013-01-27 23:02:00,38.0,38.0,30.14,SSE,147,6.0,10.0,99,0.10,,,0.20,,2013-01-28 04:02:00,
2013-01-27 23:12:00,38.0,38.0,30.14,SSE,147,6.0,10.0,99,0.10,,,0.20,,2013-01-28 04:12:00,
2013-01-27 23:22:00,38.0,38.0,30.14,SSE,167,7.0,10.0,99,0.00,,,0.20,,2013-01-28 04:22:00,
2013-01-27 23:32:00,38.0,38.0,30.12,SSE,157,8.0,16.0,99,0.00,,,0.20,,2013-01-28 04:32:00,
2013-01-27 23:42:00,38.0,38.0,30.12,SSE,157,8.0,16.0,99,0.00,,,0.20,,2013-01-28 04:42:00,
2013-01-27 23:52:00,39.0,39.0,30.11,SSE,157,7.0,8.0,99,0.00,,,0.20,,2013-01-28 04:52:00,